Terminal Aerodrome Forecast
Issued by NWS Los Angeles, CA

Home | Current Version | Previous Version | Text Only | Print | Product List | Glossary On
Versions: 1 2 3 4 5 6 7 8 9 10 11 12 13 14 15
000
FTUS46 KLOX 061100
TAFSMX
TAF
KSMX 061128Z 0612/0712 VRB03KT P6SM SKC
     FM062100 31012KT P6SM SKC
     FM070300 VRB03KT P6SM SKC=

USA.gov is the U.S. government's official web portal to all federal, state and local government web resources and services.